Погода в Тоцком

Россия / Оренбургская область     52°31′30″N   52°44′40″E
темп.,
°C
ветер,
м/с
пор.,
м/с
влажн.,
%
обл.,
%
осадки,
мм/ч
давл.,
гПа
погр.,
м
18 апреля, вс
вс1823:00+13св510654 0.0 1018181
02:00+11всв48755 0.0 1018173
05:00+9св36714 0.0 1018106
08:00+9всв48650 0.0 1017203
11:00+14всв454697 0.0 1017545
14:00+17всв4541100 0.1 10161074
17:00+17св6538100 0.2 10161393
20:00+14св7114376 0.0 1017445
19 апреля, пн
пн1923:00+11всв6125062 0.0 1018374
02:00+8св6127067 0.0 1019406
05:00+6всв6127881 0.0 1019431
08:00+5в8126439 0.0 1020585
11:00+8в91055100 0.0 10221008
14:00+6в91156100 0.0 1023996
17:00+5в81157100 0.0 1024947
20:00+6вюв61154100 0.0 10251127
20 апреля, вт
вт2023:00+6вюв7114899 0.0 10261016
02:00+3в7134672 0.0 1028672
05:00+1в7134946 0.0 1030591
08:00+1в713490 0.0 1031670
11:00+4вюв810330 0.0 10311059
14:00+8вюв810270 0.0 10301361
17:00+9вюв78260 0.0 10291517
20:00+7вюв610359 0.0 1029426
21 апреля, ср
ср2123:00+4вюв5124786 0.0 1030342
02:00+2юв41255100 0.0 1030334
05:00+1юв6145494 0.0 1030428
08:00+2юв6144866 0.0 1031561
11:00+7юв81132100 0.0 1030910
14:00+10юв8102979 0.0 10291153
17:00+11ююв81029100 0.0 10281355
20:00+9ююв61238100 0.0 1028455
22 апреля, чт
чт2223:00+8ююв51245100 0.0 1029403
02:00+7ю41055100 0.0 1030507
05:00+6ююв41067100 0.3 1031612
08:00+6ю3969100 0.3 1031735
11:00+8ю6854100 0.3 1031905
14:00+11ююв793796 0.1 10311446
17:00+10ю5941100 0.1 10311127
20:00+8зюз3456100 0.0 1031133